Regional Weather Roundup
Issued by NWS

Home | Current Version | Previous Version | Text Only | Print | Product List | Glossary Off
Versions: 1 2 3 4 5 6 7 8 9 10 11 12 13 14 15 16 17 18 19 20 21 22 23 24 25 26 27 28 29 30 31 32 33 34 35 36 37 38 39 40 41 42 43 44 45 46 47 48 49 50

000
ASUS43 KFSD 270510
RWRSD

WEATHER ROUNDUP FOR SOUTH DAKOTA
NATIONAL WEATHER SERVICE SIOUX FALLS SD
1200 AM CDT WED AUG 27 2014

NOTE: "FAIR" INDICATES FEW OR NO CLOUDS BELOW 12,000 FEET WITH NO
SIGNIFICANT WEATHER AND/OR OBSTRUCTIONS TO VISIBILITY.


SDZ001>005-009-010-012>017-270600-
NORTHWEST AND NORTH CENTRAL SOUTH DAKOTA

CITY           SKY/WX    TMP DP  RH WIND       PRES   REMARKS
BUFFALO          N/A     54  52  93 NE6       30.12R
FAITH            N/A     55  52  89 E7        30.17R
MOBRIDGE       CLOUDY    59  55  87 E7        30.15S
$$

SDZ012>016-024>037-041>051-057-063-072>074-270600-
SOUTHWEST AND SOUTH CENTRAL SOUTH DAKOTA

CITY           SKY/WX    TMP DP  RH WIND       PRES   REMARKS
RAPID CTY ARPT MOCLDY    63  54  72 CALM      30.17R
PIERRE         PTCLDY    57  54  89 NE10      30.14S
CUSTER         CLOUDY    60  55  83 E9        30.26F
ELLSWORTH AFB  MOCLDY    64  55  73 CALM      30.17R
PHILIP         MOCLDY    63  54  72 NE13      30.12S
PINE RIDGE     FOG       55  55 100 MISG      30.14S VSB 3/4
WINNER         FAIR      64  59  83 E9        30.13R
$$

SDZ004>011-016>023-039-040-270600-
NORTHEAST SOUTH DAKOTA

CITY           SKY/WX    TMP DP  RH WIND       PRES   REMARKS
ABERDEEN       CLOUDY    58  56  93 N5        30.19R
WATERTOWN      CLOUDY    59  55  87 VRB3      30.19S
SISSETON         N/A     60  58  92 CALM      30.18S
$$

SDZ017-020-022-023-036>040-048>070-270600-
SOUTHEAST SOUTH DAKOTA

CITY           SKY/WX    TMP DP  RH WIND       PRES   REMARKS
SIOUX FALLS    MOCLDY    62  57  83 E5        30.18S
HURON          CLOUDY    61  58  90 E6        30.16S
CHAMBERLAIN    CLOUDY    61  57  88 E9        30.14S
MITCHELL       PTCLDY    61  58  90 SE6       30.17R
YANKTON        CLEAR     61  57  88 NE5       30.16S
$$

ABBREVIATIONS USED IN REMARKS
   TC - TEMPERATURE IN CELSIUS
  WCI - WIND CHILL INDEX
   HX - HEAT INDEX
  VSB - VISIBILITY



USA.gov is the U.S. government's official web portal to all federal, state and local government web resources and services.